CARBONITE 1 (CBNT-1)

Last updated on Mon Oct 14 2024 00:02:24 GMT+0000 (Coordinated Universal Time)

1 40718U 15032D 24287.52905482 .00005470 00000+0 73357-3 0 9992 2 40718 97.6505 121.9845 0016167 134.3742 225.8798 14.79665163498751
UTC large
Height (km)
Speed (km/s)
/
Latitude / Longitude
Inclination (degrees)
Orbital Period (minutes)
Azimuth
Elevation
Range (km)
Doppler Factor

Next 0 passes for location: London (51.5072 / 0.1276)

Sorry there are no passes over London.